Volver al catálogo

STARLINK-4288

ActivoComunicacionesVLEO
NORAD 53005·PAYLOAD·🇺🇸 United States

Lanzado Jul 7, 2022 desde Cape Canaveral Space Force Station

Loading…

Próximos Pases (próximas 24 horas)

TLE

ActualizadoSource: CelesTrak SupGP

Época: Sep 14, 2026, 21:49 UTC

1 53005C 22076V   26257.90951389  .00002823  00000+0  83411-4 0  2578
2 53005  53.1580 310.2116 0001045  65.1003 212.5510 15.34388515    16

Sigue STARLINK-4288 en tiempo real con AllMySat

Download on the App Store